Regional Weather Roundup
Issued by NWS

Home | Current Version | Previous Version | Text Only | Print | Product List | Glossary On
Versions: 1 2 3 4 5 6 7 8 9 10 11 12 13 14 15 16 17 18 19 20 21 22 23 24 25 26 27 28 29 30 31 32 33 34 35 36 37 38 39 40 41 42 43 44 45 46 47 48 49 50
000
ASUS45 KBOI 301310
RWRID

IDAHO REGIONAL WEATHER ROUNDUP
NATIONAL WEATHER SERVICE BOISE ID
700 AM MDT THU MAR 30 2017

NOTE: "FAIR" INDICATES FEW OR NO CLOUDS BELOW 12000 FEET
WITH NO SIGNIFICANT WEATHER AND/OR OBSTRUCTIONS TO VISIBILITY

IDZ012-014-301400-
SOUTHWEST IDAHO


CITY           SKY/WX    TMP DP  RH WIND       PRES   REMARKS
BOISE          RAIN      44  43  96 SW6       29.73R FOG
CALDWELL       LGT RAIN  46  45  96 W5        29.73F
MOUNTAIN HOME  CLOUDY    50 N/A N/A SE8       29.70F
$$

IDZ016-017-301400-
SOUTHCENTRAL IDAHO


CITY           SKY/WX    TMP DP  RH WIND       PRES   REMARKS
BURLEY         CLOUDY    44  41  89 S8        29.76F
JEROME         CLOUDY    44  44 100 SE7       29.76F
TWIN FALLS     LGT RAIN  44  41  89 S3        29.77F
$$

IDZ019>023-301400-
SOUTHEAST IDAHO


CITY           SKY/WX    TMP DP  RH WIND       PRES   REMARKS
IDAHO FALLS    CLOUDY    43  41  93 S17G23    29.78F
POCATELLO      CLOUDY    44  41  89 S13       29.79F
REXBURG        CLOUDY    41  38  89 S8        29.77S
$$

IDZ006-010-011-018-031-032-301400-
CENTRAL IDAHO MOUNTAINS


CITY           SKY/WX    TMP DP  RH WIND       PRES   REMARKS
MCCALL         CLOUDY    34  32  92 N6        29.72F WCI  29
HAILEY         MOCLDY    36  36 100 W12       29.76F WCI  27
STANLEY          N/A     32  31  96 SE6       29.75F WCI  26
SALMON         CLOUDY    39  37  93 S3        29.77F
CHALLIS        MOCLDY    36  36 100 CALM      29.74F FOG
$$

IDZ002-004-006-007-026-301400-
NORTHERN IDAHO


CITY           SKY/WX    TMP DP  RH WIND       PRES   REMARKS
LEWISTON       CLOUDY    47  37  68 NW8       29.87S
LOWELL           N/A     43  41  93 CALM      29.87F
COEUR D`ALENE  PTCLDY    38  36  92 SW6       29.83S WCI  33
MULLAN PASS    SNOW      30  30 100 MISG      29.77S VSB 1/4
$$



USA.gov is the U.S. government's official web portal to all federal, state and local government web resources and services.